Back to catalog

CZ-6A DEB

AliveSSO
NORAD 56605·DEBRIS·🇨🇳 China

Launched Nov 11, 2022 from Taiyuan Satellite Launch Center

Loading…

Next Passes (next 24 hours)

TLE

FreshSource: Space-Track

Epoch: Sep 14, 2026, 21:12 UTC

1 56605U 22151AED 26257.88363584  .00003435  00000-0  11361-2 0  9999
2 56605  98.7702 296.0454 0000653  93.2796 266.8465 14.38623294188081

Track CZ-6A DEB in real time with AllMySat

Download on the App Store